Weather History for Bellingham, WA

Change the Weather History Date:

Saturday, January 26, 2013

  Actual Average Record
Temperature  
Mean Temperature 39 °F 40 °F  
Max Temperature 43 °F 47 °F 59 °F (2003)
Min Temperature 35 °F 33 °F 10 °F (1957)
Degree Days  
Heating Degree Days 26 25  
Month to date heating degree days 673  
Cooling Degree Days 0 0  
Month to date cooling degree days 0  
Year to date cooling degree days 0  
Moisture  
Dew Point 37 °F    
Average Humidity 91    
Maximum Humidity 96    
Minimum Humidity 76    
Precipitation  
Precipitation 0.06 in 0.14 in 1.10 in (1971)
Month to date precipitation 3.97  
Year to date precipitation 3.97  
Sea Level Pressure  
Sea Level Pressure 29.94 in    
Wind  
Wind Speed 6 mph (ESE)    
Max Wind Speed 10 mph    
Max Gust Speed -    
Visibility 9 miles    
Events Rain    
T = Trace of Precipitation, MM = Missing Value Source: NWS Daily Summary

Daily Weather History Graph

Daily Weather History Graph

Search for Another Location

Airport:

Trip Planner

Search our weather history database for the weather conditions in past years. The results will help you decide how hot, cold, wet, or windy it might be!

Date:

Astronomy

Jan. 26, 2013 Rise Set
Actual Time 7:47 AM PST 4:58 PM PST
Civil Twilight 7:12 AM PST 5:33 PM PST
Nautical Twilight 6:34 AM PST 6:11 PM PST
Astronomical Twilight 5:57 AM PST 6:49 PM PST
Moon 5:03 PM PST (1/26) 7:05 AM PST (1/26)
Length of Visible Light 10h 20m
Length of Day
9h 11m
Full, 100% of the Moon is Illuminated
Jan 26
Full
Jan 26
Full
Feb 3
Last Quarter
Feb 9
New
Feb 17
First Quarter

Hourly Weather History & Observations

Time (PST) Temp. Windchill Dew Point Humidity Pressure Visibility Wind Dir Wind Speed Gust Speed Precip Events Conditions
12:48 AM 37.4 °F 32.8 °F 35.6 °F 93% 29.89 in 10.0 mi NNE 5.8 mph - N/A   Overcast
12:53 AM 37.0 °F 31.6 °F 35.1 °F 93% 29.91 in 10.0 mi NNE 6.9 mph - N/A   Overcast
1:04 AM 37.4 °F 33.8 °F 35.6 °F 93% 29.88 in 10.0 mi NNE 4.6 mph - N/A   Mostly Cloudy
1:53 AM 41.0 °F 36.4 °F 36.0 °F 82% 29.90 in 10.0 mi ESE 6.9 mph - N/A   Partly Cloudy
2:53 AM 35.1 °F 30.1 °F 33.1 °F 92% 29.91 in 10.0 mi NNE 5.8 mph - N/A   Mostly Cloudy
3:53 AM 37.0 °F 31.0 °F 34.0 °F 89% 29.89 in 10.0 mi ENE 8.1 mph - N/A   Overcast
4:53 AM 39.9 °F 34.5 °F 35.1 °F 83% 29.89 in 10.0 mi East 8.1 mph - N/A   Overcast
5:08 AM 42.8 °F 37.5 °F 35.6 °F 76% 29.86 in 10.0 mi East 9.2 mph - N/A   Overcast
5:40 AM 42.8 °F 37.5 °F 37.4 °F 81% 29.86 in 10.0 mi ESE 9.2 mph - N/A   Overcast
5:53 AM 43.0 °F 38.2 °F 37.0 °F 80% 29.88 in 10.0 mi East 8.1 mph - N/A   Overcast
6:22 AM 42.8 °F 38.0 °F 37.4 °F 81% 29.86 in 10.0 mi East 8.1 mph - 0.00 in Rain Light Rain
6:53 AM 42.1 °F 37.7 °F 37.9 °F 85% 29.89 in 10.0 mi East 6.9 mph - 0.00 in Rain Light Rain
7:53 AM 37.9 °F - 36.0 °F 93% 29.90 in 10.0 mi Calm Calm - 0.00 in Rain Light Rain
8:53 AM 39.9 °F 35.8 °F 37.0 °F 89% 29.91 in 10.0 mi ESE 5.8 mph - 0.00 in Rain Light Rain
9:53 AM 39.0 °F 34.8 °F 37.0 °F 93% 29.93 in 10.0 mi NNE 5.8 mph - 0.00 in Rain Light Rain
10:53 AM 39.9 °F - 37.9 °F 93% 29.94 in 10.0 mi Calm Calm - 0.00 in Rain Light Rain
11:45 AM 39.2 °F 33.0 °F 37.4 °F 93% 29.90 in 7.0 mi SE 9.2 mph - 0.04 in Rain Light Rain
11:53 AM 39.9 °F 33.4 °F 37.9 °F 93% 29.93 in 7.0 mi SE 10.4 mph - 0.04 in Rain Light Rain
12:24 PM 39.2 °F 33.6 °F 37.4 °F 93% 29.90 in 5.0 mi SSE 8.1 mph - 0.00 in Rain Light Rain
12:53 PM 39.9 °F 33.4 °F 37.0 °F 89% 29.93 in 6.0 mi SSE 10.4 mph - 0.01 in Rain Light Rain
1:53 PM 39.0 °F 32.3 °F 36.0 °F 89% 29.93 in 6.0 mi SSE 10.4 mph - 0.00 in Rain Light Rain
2:53 PM 39.0 °F 34.0 °F 37.0 °F 93% 29.94 in 5.0 mi SE 6.9 mph - 0.01 in Rain Light Rain
3:46 PM 37.4 °F 32.1 °F 35.6 °F 93% 29.91 in 9.0 mi SE 6.9 mph - 0.00 in Rain Light Rain
3:53 PM 37.9 °F 33.5 °F 36.0 °F 93% 29.94 in 10.0 mi ESE 5.8 mph - 0.00 in Rain Light Rain
4:53 PM 39.0 °F 35.7 °F 37.0 °F 93% 29.95 in 10.0 mi SE 4.6 mph - 0.00 in Rain Light Rain
5:42 PM 39.2 °F 35.9 °F 37.4 °F 93% 29.93 in 10.0 mi SE 4.6 mph - 0.00 in   Overcast
5:53 PM 39.0 °F 35.7 °F 37.0 °F 93% 29.96 in 10.0 mi South 4.6 mph - 0.00 in   Overcast
6:12 PM 39.2 °F 37.0 °F 37.4 °F 93% 29.94 in 10.0 mi SSE 3.5 mph - N/A   Overcast
6:39 PM 39.2 °F 35.9 °F 37.4 °F 93% 29.94 in 10.0 mi South 4.6 mph - N/A   Overcast
6:53 PM 41.0 °F 38.0 °F 39.0 °F 93% 29.97 in 10.0 mi South 4.6 mph - N/A   Overcast
7:53 PM 41.0 °F - 39.0 °F 93% 29.99 in 10.0 mi Calm Calm - 0.00 in   Overcast
8:01 PM 39.2 °F - 37.4 °F 93% 29.96 in 8.0 mi Calm Calm - N/A   Overcast
8:31 PM 39.2 °F 37.0 °F 37.4 °F 93% 29.97 in 6.0 mi North 3.5 mph - N/A   Overcast
8:53 PM 39.0 °F - 37.9 °F 96% 30.01 in 7.0 mi Calm Calm - N/A   Overcast
9:15 PM 39.2 °F - 37.4 °F 93% 29.98 in 7.0 mi Calm Calm - N/A   Overcast
9:26 PM 39.2 °F - 37.4 °F 93% 29.98 in 5.0 mi Calm Calm - N/A   Overcast
9:40 PM 39.2 °F 37.0 °F 37.4 °F 93% 29.98 in 6.0 mi South 3.5 mph - N/A   Overcast
9:53 PM 39.9 °F 37.8 °F 37.9 °F 93% 30.01 in 10.0 mi South 3.5 mph - N/A   Overcast
10:09 PM 39.2 °F 37.0 °F 37.4 °F 93% 29.99 in 10.0 mi South 3.5 mph - N/A   Overcast
10:18 PM 41.0 °F 39.0 °F 37.4 °F 87% 29.99 in 10.0 mi South 3.5 mph - N/A   Overcast
10:53 PM 39.9 °F - 37.9 °F 93% 30.03 in 10.0 mi Calm Calm - N/A   Overcast
11:53 PM 39.9 °F - 37.9 °F 93% 30.04 in 7.0 mi Calm Calm - N/A   Overcast